Accueil
METAR-TAF:

METAR-TAF

Aéroports :

Greenville, Maine, États-Unis

latitude: 45-28N, longitude: 069-35W, altitude: 427 m

Observation

Le bulletin a été fait il y a 55 minutes, à 18:56 UTC
Vent 11 kt de sud avec des rafales jusqu'à 16 kt, variant entre sud-est et sud/sud-ouest
Température 21°C
Humidité 33%
Pression 1017 hPa

METAR: KGNR 221856Z AUTO 19011G16KT 140V210 21/04 A3002 RMK AO1 SLP168 T02060039

Heure: 15:51 (19:51 UTC)


TAF: absent

Observations et prévisions météorologiques de plus de 4000 aéroports (messages METAR et TAF).

Les stations disponibles sont représentées par des disques jaunes et rouges sur la carte.

Passer la souris dessus pour voir le nom de la station.

Cliquer dessus pour voir les observations et prévisions météorologiques.

Pour changer de carte: cliquez sur les boutons verts avec une croix noire pour zoomer, sur le bouton vert avec un tiret pour effectuer un zoom arrière, ou sur les flèches vertes pour les cartes adjacentes.


METAR-TAF: